Time,TemperatureF,DewpointF,PressureIn,WindDirection,WindDirectionDegrees,WindSpeedMPH,WindSpeedGustMPH,Humidity,HourlyPrecipIn,Conditions,Clouds,dailyrainin,SoftwareType,DateUTC
2013-05-08 00:01:00,61.7,26.4,30.03,WNW,292,2.3,5.6,26,0.00,CLR,,0.00,WeatherDisplay:10.37,2013-05-08 05:01:00,
2013-05-08 00:06:00,61.7,26.4,30.03,WNW,292,2.3,5.6,26,0.00,CLR,,0.00,WeatherDisplay:10.37,2013-05-08 05:06:00,
2013-05-08 00:11:00,61.7,26.4,30.03,WNW,292,2.3,5.6,26,0.00,CLR,,0.00,WeatherDisplay:10.37,2013-05-08 05:11:00,
2013-05-08 00:16:00,61.5,27.2,30.03,WNW,292,2.3,5.6,27,0.00,CLR,,0.00,WeatherDisplay:10.37,2013-05-08 05:16:00,
2013-05-08 00:21:00,61.5,27.2,30.03,WNW,292,2.3,5.6,27,0.00,CLR,,0.00,WeatherDisplay:10.37,2013-05-08 05:21:00,
2013-05-08 00:26:00,61.5,27.2,30.03,WNW,292,2.9,5.6,27,0.00,CLR,,0.00,WeatherDisplay:10.37,2013-05-08 05:26:00,
2013-05-08 00:31:00,61.3,27.0,30.03,WNW,292,2.3,5.6,27,0.00,CLR,,0.00,WeatherDisplay:10.37,2013-05-08 05:31:00,
2013-05-08 00:36:00,61.3,27.9,30.03,WNW,292,2.3,5.6,28,0.00,CLR,,0.00,WeatherDisplay:10.37,2013-05-08 05:36:00,
2013-05-08 00:41:00,61.7,28.2,30.03,WNW,292,2.3,5.6,28,0.00,CLR,,0.00,WeatherDisplay:10.37,2013-05-08 05:41:00,
2013-05-08 00:46:00,61.3,27.9,30.03,WNW,292,2.9,5.6,28,0.00,CLR,,0.00,WeatherDisplay:10.37,2013-05-08 05:46:00,
2013-05-08 00:51:00,61.2,28.6,30.03,WNW,292,2.3,5.6,29,0.00,CLR,,0.00,WeatherDisplay:10.37,2013-05-08 05:51:00,
2013-05-08 00:56:00,61.3,28.8,30.03,WNW,292,2.3,5.6,29,0.00,CLR,,0.00,WeatherDisplay:10.37,2013-05-08 05:56:00,
2013-05-08 01:01:00,61.2,28.6,30.03,WNW,292,2.3,5.6,29,0.00,CLR,,0.00,WeatherDisplay:10.37,2013-05-08 06:01:00,
2013-05-08 01:06:00,61.2,28.6,30.03,WNW,292,2.3,5.6,29,0.00,CLR,,0.00,WeatherDisplay:10.37,2013-05-08 06:06:00,
2013-05-08 01:11:00,61.2,29.5,30.03,WNW,292,2.3,5.6,30,0.00,CLR,,0.00,WeatherDisplay:10.37,2013-05-08 06:11:00,
2013-05-08 01:16:00,61.2,29.5,30.03,WNW,292,2.3,5.6,30,0.00,CLR,,0.00,WeatherDisplay:10.37,2013-05-08 06:16:00,
2013-05-08 01:21:00,61.2,29.5,30.03,WNW,292,2.3,5.6,30,0.00,CLR,,0.00,WeatherDisplay:10.37,2013-05-08 06:21:00,
2013-05-08 01:26:00,61.0,30.1,30.03,WNW,292,2.3,5.6,31,0.00,CLR,,0.00,WeatherDisplay:10.37,2013-05-08 06:26:00,
2013-05-08 01:31:00,61.0,30.1,30.03,WNW,292,2.3,5.6,31,0.00,CLR,,0.00,WeatherDisplay:10.37,2013-05-08 06:31:00,
2013-05-08 01:36:00,61.0,30.1,30.03,WNW,292,2.3,5.6,31,0.00,CLR,,0.00,WeatherDisplay:10.37,2013-05-08 06:36:00,
2013-05-08 01:41:00,61.0,30.9,30.03,WNW,292,2.9,5.6,32,0.00,CLR,,0.00,WeatherDisplay:10.37,2013-05-08 06:41:00,
2013-05-08 01:46:00,60.8,29.9,30.06,WNW,292,2.3,5.6,31,0.00,CLR,,0.00,WeatherDisplay:10.37,2013-05-08 06:46:00,
2013-05-08 01:51:00,60.6,30.6,30.06,WNW,292,2.3,5.6,32,0.00,CLR,,0.00,WeatherDisplay:10.37,2013-05-08 06:51:00,
2013-05-08 01:56:00,60.6,31.3,30.06,WNW,292,2.3,5.6,33,0.00,CLR,,0.00,WeatherDisplay:10.37,2013-05-08 06:56:00,
2013-05-08 02:01:00,60.6,31.3,30.03,WNW,292,2.9,5.6,33,0.00,CLR,,0.00,WeatherDisplay:10.37,2013-05-08 07:01:00,
2013-05-08 02:06:00,60.4,31.2,30.03,WNW,292,2.3,5.6,33,0.00,CLR,,0.00,WeatherDisplay:10.37,2013-05-08 07:06:00,
2013-05-08 02:12:00,60.4,31.9,30.03,WNW,292,2.3,5.6,34,0.00,CLR,,0.00,WeatherDisplay:10.37,2013-05-08 07:12:00,
2013-05-08 02:17:00,60.3,31.8,30.03,WNW,292,2.9,5.6,34,0.00,CLR,,0.00,WeatherDisplay:10.37,2013-05-08 07:17:00,
2013-05-08 02:22:00,60.3,31.8,30.03,WNW,292,2.3,5.6,34,0.00,CLR,,0.00,WeatherDisplay:10.37,2013-05-08 07:22:00,
2013-05-08 02:27:00,60.1,31.6,30.03,WNW,292,2.3,5.6,34,0.00,CLR,,0.00,WeatherDisplay:10.37,2013-05-08 07:27:00,
2013-05-08 02:32:00,59.9,31.4,30.03,WNW,292,2.3,5.6,34,0.00,CLR,,0.00,WeatherDisplay:10.37,2013-05-08 07:32:00,
2013-05-08 02:37:00,59.7,31.3,30.03,WNW,292,2.3,5.6,34,0.00,CLR,,0.00,WeatherDisplay:10.37,2013-05-08 07:37:00,
2013-05-08 02:42:00,59.4,31.0,30.03,WNW,292,2.9,5.6,34,0.00,CLR,,0.00,WeatherDisplay:10.37,2013-05-08 07:42:00,
2013-05-08 02:47:00,59.4,31.0,30.03,WNW,292,2.3,5.6,34,0.00,CLR,,0.00,WeatherDisplay:10.37,2013-05-08 07:47:00,
2013-05-08 02:52:00,59.2,30.8,30.03,WNW,292,2.3,5.6,34,0.00,CLR,,0.00,WeatherDisplay:10.37,2013-05-08 07:52:00,
2013-05-08 02:57:00,59.2,30.8,30.03,WNW,292,2.9,5.6,34,0.00,CLR,,0.00,WeatherDisplay:10.37,2013-05-08 07:57:00,
2013-05-08 03:02:00,59.2,30.8,30.03,WNW,292,2.3,5.6,34,0.00,CLR,,0.00,WeatherDisplay:10.37,2013-05-08 08:02:00,
2013-05-08 03:07:00,59.0,30.6,30.03,WNW,292,2.3,5.6,34,0.00,CLR,,0.00,WeatherDisplay:10.37,2013-05-08 08:07:00,
2013-05-08 03:12:00,58.8,31.2,30.03,WNW,292,2.3,5.6,35,0.00,CLR,,0.00,WeatherDisplay:10.37,2013-05-08 08:12:00,
2013-05-08 03:17:00,58.8,31.2,30.03,WNW,292,2.3,5.6,35,0.00,CLR,,0.00,WeatherDisplay:10.37,2013-05-08 08:17:00,
2013-05-08 03:22:00,58.8,31.2,30.03,WNW,292,2.3,5.6,35,0.00,CLR,,0.00,WeatherDisplay:10.37,2013-05-08 08:22:00,
2013-05-08 03:27:00,58.8,31.2,30.03,WNW,292,2.3,5.6,35,0.00,CLR,,0.00,WeatherDisplay:10.37,2013-05-08 08:27:00,
2013-05-08 03:32:00,58.8,31.2,30.03,WNW,292,2.3,5.6,35,0.00,CLR,,0.00,WeatherDisplay:10.37,2013-05-08 08:32:00,
2013-05-08 03:37:00,58.8,31.2,30.03,WNW,292,2.3,5.6,35,0.00,CLR,,0.00,WeatherDisplay:10.37,2013-05-08 08:37:00,
2013-05-08 03:42:00,58.6,31.0,30.03,WNW,292,2.3,5.6,35,0.00,CLR,,0.00,WeatherDisplay:10.37,2013-05-08 08:42:00,
2013-05-08 03:47:00,58.6,31.0,30.03,WNW,292,2.3,5.6,35,0.00,CLR,,0.00,WeatherDisplay:10.37,2013-05-08 08:47:00,
2013-05-08 03:52:00,58.3,30.7,30.03,WNW,292,2.3,5.6,35,0.00,CLR,,0.00,WeatherDisplay:10.37,2013-05-08 08:52:00,
2013-05-08 03:57:00,58.1,30.6,30.03,WNW,292,2.3,5.6,35,0.00,CLR,,0.00,WeatherDisplay:10.37,2013-05-08 08:57:00,
2013-05-08 04:02:00,58.3,30.7,30.03,WNW,292,2.9,5.6,35,0.00,CLR,,0.00,WeatherDisplay:10.37,2013-05-08 09:02:00,
2013-05-08 04:07:00,58.3,30.7,30.03,WNW,292,2.3,5.6,35,0.00,CLR,,0.00,WeatherDisplay:10.37,2013-05-08 09:07:00,
2013-05-08 04:12:00,58.1,30.6,30.03,WNW,292,2.3,5.6,35,0.00,CLR,,0.00,WeatherDisplay:10.37,2013-05-08 09:12:00,
2013-05-08 04:17:00,58.1,30.6,30.03,WNW,292,2.3,5.6,35,0.00,CLR,,0.00,WeatherDisplay:10.37,2013-05-08 09:17:00,
2013-05-08 04:22:00,58.1,30.6,30.03,WNW,292,2.9,5.6,35,0.00,CLR,,0.00,WeatherDisplay:10.37,2013-05-08 09:22:00,
2013-05-08 04:27:00,58.1,30.6,30.03,WNW,292,2.3,5.6,35,0.00,CLR,,0.00,WeatherDisplay:10.37,2013-05-08 09:27:00,
2013-05-08 04:32:00,58.1,30.6,30.03,WNW,292,2.3,5.6,35,0.00,CLR,,0.00,WeatherDisplay:10.37,2013-05-08 09:32:00,
2013-05-08 04:37:00,57.9,30.4,30.03,WNW,292,2.9,5.6,35,0.00,CLR,,0.00,WeatherDisplay:10.37,2013-05-08 09:37:00,
2013-05-08 04:42:00,57.9,31.1,30.03,WNW,292,2.3,5.6,36,0.00,CLR,,0.00,WeatherDisplay:10.37,2013-05-08 09:42:00,
2013-05-08 04:47:00,57.7,30.2,30.06,WNW,292,2.9,5.6,35,0.00,CLR,,0.00,WeatherDisplay:10.37,2013-05-08 09:47:00,
2013-05-08 04:52:00,57.7,30.9,30.06,WNW,292,2.3,5.6,36,0.00,CLR,,0.00,WeatherDisplay:10.37,2013-05-08 09:52:00,
2013-05-08 04:57:00,57.7,30.9,30.06,WNW,292,2.3,5.6,36,0.00,CLR,,0.00,WeatherDisplay:10.37,2013-05-08 09:57:00,
2013-05-08 05:02:00,57.7,30.9,30.06,WNW,292,2.9,5.6,36,0.00,CLR,,0.00,WeatherDisplay:10.37,2013-05-08 10:02:00,
2013-05-08 05:07:00,57.7,30.9,30.06,WNW,292,2.3,5.6,36,0.00,CLR,,0.00,WeatherDisplay:10.37,2013-05-08 10:07:00,
2013-05-08 05:12:00,57.7,30.9,30.06,WNW,292,2.3,5.6,36,0.00,SCT,,0.00,WeatherDisplay:10.37,2013-05-08 10:12:00,
2013-05-08 05:17:00,57.6,30.8,30.06,WNW,292,2.9,5.6,36,0.00,SCT,,0.00,WeatherDisplay:10.37,2013-05-08 10:17:00,
2013-05-08 05:22:00,57.4,30.6,30.06,WNW,292,2.3,5.6,36,0.00,BKN,,0.00,WeatherDisplay:10.37,2013-05-08 10:22:00,
2013-05-08 05:27:00,57.2,30.5,30.06,WNW,292,2.3,5.6,36,0.00,BKN,,0.00,WeatherDisplay:10.37,2013-05-08 10:27:00,
2013-05-08 05:32:00,57.0,30.3,30.06,WNW,292,2.9,5.6,36,0.00,BKN,,0.00,WeatherDisplay:10.37,2013-05-08 10:32:00,
2013-05-08 05:37:00,56.8,30.1,30.06,WNW,292,2.3,5.6,36,0.00,BKN,,0.00,WeatherDisplay:10.37,2013-05-08 10:37:00,
2013-05-08 05:42:00,57.0,30.3,30.06,WNW,292,2.9,5.6,36,0.00,BKN,,0.00,WeatherDisplay:10.37,2013-05-08 10:42:00,
2013-05-08 05:47:00,57.2,30.5,30.06,WNW,292,2.9,5.6,36,0.00,BKN,,0.00,WeatherDisplay:10.37,2013-05-08 10:47:00,
2013-05-08 05:52:00,57.0,30.3,30.06,WNW,292,2.3,5.6,36,0.00,SCT,,0.00,WeatherDisplay:10.37,2013-05-08 10:52:00,
2013-05-08 05:57:00,56.8,30.1,30.06,WNW,292,2.3,5.6,36,0.00,SCT,,0.00,WeatherDisplay:10.37,2013-05-08 10:57:00,
2013-05-08 06:02:00,56.8,30.1,30.06,WNW,292,2.3,5.6,36,0.00,FEW,,0.00,WeatherDisplay:10.37,2013-05-08 11:02:00,
2013-05-08 06:07:00,56.7,30.0,30.06,WNW,292,2.3,5.6,36,0.00,FEW,,0.00,WeatherDisplay:10.37,2013-05-08 11:07:00,
2013-05-08 06:12:00,56.7,30.7,30.06,WNW,292,2.3,5.6,37,0.00,FEW,,0.00,WeatherDisplay:10.37,2013-05-08 11:12:00,
2013-05-08 06:17:00,56.5,30.5,30.09,WNW,292,2.3,5.6,37,0.00,FEW,,0.00,WeatherDisplay:10.37,2013-05-08 11:17:00,
2013-05-08 06:22:00,56.7,30.7,30.09,WNW,292,2.3,5.6,37,0.00,FEW,,0.00,WeatherDisplay:10.37,2013-05-08 11:22:00,
2013-05-08 06:27:00,56.7,30.7,30.09,WNW,292,2.3,5.6,37,0.00,FEW,,0.00,WeatherDisplay:10.37,2013-05-08 11:27:00,
2013-05-08 06:32:00,56.7,30.7,30.09,WNW,292,2.3,5.6,37,0.00,BKN,,0.00,WeatherDisplay:10.37,2013-05-08 11:32:00,
2013-05-08 06:37:00,56.8,30.8,30.09,WNW,292,2.9,5.6,37,0.00,BKN,,0.00,WeatherDisplay:10.37,2013-05-08 11:37:00,
2013-05-08 06:42:00,57.2,31.1,30.09,WNW,292,2.3,5.6,37,0.00,BKN,,0.00,WeatherDisplay:10.37,2013-05-08 11:42:00,
2013-05-08 06:47:00,57.6,31.5,30.09,WNW,292,2.9,5.6,37,0.00,BKN,,0.00,WeatherDisplay:10.37,2013-05-08 11:47:00,
2013-05-08 06:52:00,57.7,31.6,30.09,WNW,292,2.3,5.6,37,0.00,BKN,,0.00,WeatherDisplay:10.37,2013-05-08 11:52:00,
2013-05-08 06:57:00,58.3,32.1,30.09,WNW,292,2.3,5.6,37,0.00,BKN,,0.00,WeatherDisplay:10.37,2013-05-08 11:57:00,
2013-05-08 07:02:00,58.6,32.4,30.09,WNW,292,2.3,5.6,37,0.00,CLR,,0.00,WeatherDisplay:10.37,2013-05-08 12:02:00,
2013-05-08 07:07:00,59.2,32.9,30.09,WNW,292,2.3,5.6,37,0.00,CLR,,0.00,WeatherDisplay:10.37,2013-05-08 12:07:00,
2013-05-08 07:12:00,60.4,34.7,30.09,WNW,292,2.3,5.6,38,0.00,CLR,,0.00,WeatherDisplay:10.37,2013-05-08 12:12:00,
2013-05-08 07:17:00,61.5,35.7,30.09,WNW,292,2.9,5.6,38,0.00,CLR,,0.00,WeatherDisplay:10.37,2013-05-08 12:17:00,
2013-05-08 07:22:00,63.1,37.1,30.09,WNW,292,2.3,5.6,38,0.00,CLR,,0.00,WeatherDisplay:10.37,2013-05-08 12:22:00,
2013-05-08 07:27:00,64.4,37.5,30.09,WNW,292,2.3,5.6,37,0.00,CLR,,0.00,WeatherDisplay:10.37,2013-05-08 12:27:00,
2013-05-08 07:32:00,65.5,38.5,30.09,WNW,292,2.3,5.6,37,0.00,CLR,,0.00,WeatherDisplay:10.37,2013-05-08 12:32:00,
2013-05-08 07:37:00,66.9,39.1,30.09,WNW,292,2.3,5.6,36,0.00,CLR,,0.00,WeatherDisplay:10.37,2013-05-08 12:37:00,
2013-05-08 07:42:00,68.2,40.2,30.09,WNW,292,2.9,5.6,36,0.00,SCT,,0.00,WeatherDisplay:10.37,2013-05-08 12:42:00,
2013-05-08 07:47:00,69.3,41.2,30.09,WNW,292,2.3,5.6,36,0.00,SCT,,0.00,WeatherDisplay:10.37,2013-05-08 12:47:00,
2013-05-08 07:53:00,70.2,40.5,30.09,WNW,292,2.3,5.6,34,0.00,FEW,,0.00,WeatherDisplay:10.37,2013-05-08 12:53:00,
2013-05-08 07:58:00,71.2,41.4,30.09,WNW,292,2.3,5.6,34,0.00,FEW,,0.00,WeatherDisplay:10.37,2013-05-08 12:58:00,
2013-05-08 08:03:00,71.8,41.1,30.09,WNW,292,2.3,5.6,33,0.00,CLR,,0.00,WeatherDisplay:10.37,2013-05-08 13:03:00,
2013-05-08 08:08:00,71.6,40.2,30.09,WNW,292,2.3,5.6,32,0.00,CLR,,0.00,WeatherDisplay:10.37,2013-05-08 13:08:00,
2013-05-08 08:13:00,71.4,40.0,30.09,WNW,292,2.9,5.6,32,0.00,CLR,,0.00,WeatherDisplay:10.37,2013-05-08 13:13:00,
2013-05-08 08:18:00,72.0,39.7,30.09,WNW,292,2.3,5.6,31,0.00,CLR,,0.00,WeatherDisplay:10.37,2013-05-08 13:18:00,
2013-05-08 08:23:00,72.9,39.6,30.09,WNW,292,2.3,5.6,30,0.00,CLR,,0.00,WeatherDisplay:10.37,2013-05-08 13:23:00,
2013-05-08 08:28:00,73.8,38.6,30.09,WNW,292,2.9,5.6,28,0.00,CLR,,0.00,WeatherDisplay:10.37,2013-05-08 13:28:00,
2013-05-08 08:33:00,74.3,36.2,30.09,WNW,292,2.3,5.6,25,0.00,CLR,,0.00,WeatherDisplay:10.37,2013-05-08 13:33:00,
2013-05-08 08:38:00,75.4,35.0,30.09,WNW,292,2.3,5.6,23,0.00,CLR,,0.00,WeatherDisplay:10.37,2013-05-08 13:38:00,
2013-05-08 08:43:00,76.3,34.6,30.09,WNW,292,2.9,5.6,22,0.00,CLR,,0.00,WeatherDisplay:10.37,2013-05-08 13:43:00,
2013-05-08 08:48:00,76.1,33.3,30.09,WNW,292,2.3,5.6,21,0.00,CLR,,0.00,WeatherDisplay:10.37,2013-05-08 13:48:00,
2013-05-08 08:53:00,75.6,32.9,30.09,WNW,292,2.3,5.6,21,0.00,CLR,,0.00,WeatherDisplay:10.37,2013-05-08 13:53:00,
2013-05-08 08:58:00,75.2,32.6,30.09,WNW,292,2.3,5.6,21,0.00,CLR,,0.00,WeatherDisplay:10.37,2013-05-08 13:58:00,
2013-05-08 09:03:00,75.2,32.6,30.12,WNW,292,2.3,5.6,21,0.00,CLR,,0.00,WeatherDisplay:10.37,2013-05-08 14:03:00,
2013-05-08 09:08:00,75.9,33.2,30.12,WNW,292,2.9,5.6,21,0.00,CLR,,0.00,WeatherDisplay:10.37,2013-05-08 14:08:00,
2013-05-08 09:13:00,77.2,34.2,30.12,WNW,292,2.9,5.6,21,0.00,CLR,,0.00,WeatherDisplay:10.37,2013-05-08 14:13:00,
2013-05-08 09:18:00,77.9,33.6,30.09,WNW,292,2.3,5.6,20,0.00,CLR,,0.00,WeatherDisplay:10.37,2013-05-08 14:18:00,
2013-05-08 09:23:00,77.7,33.4,30.09,WNW,292,2.3,5.6,20,0.00,CLR,,0.00,WeatherDisplay:10.37,2013-05-08 14:23:00,
2013-05-08 09:28:00,78.1,31.1,30.09,WNW,292,2.3,5.6,18,0.00,CLR,,0.00,WeatherDisplay:10.37,2013-05-08 14:28:00,
2013-05-08 09:33:00,79.2,30.6,30.12,WNW,292,2.3,5.6,17,0.00,CLR,,0.00,WeatherDisplay:10.37,2013-05-08 14:33:00,
2013-05-08 09:38:00,79.5,30.9,30.12,WNW,292,2.9,5.6,17,0.00,CLR,,0.00,WeatherDisplay:10.37,2013-05-08 14:38:00,
2013-05-08 09:43:00,79.7,27.9,30.12,WNW,292,2.3,5.6,15,0.00,CLR,,0.00,WeatherDisplay:10.37,2013-05-08 14:43:00,
2013-05-08 09:48:00,79.2,27.5,30.12,WNW,292,2.3,5.6,15,0.00,CLR,,0.00,WeatherDisplay:10.37,2013-05-08 14:48:00,
2013-05-08 09:53:00,79.9,28.1,30.12,WNW,292,2.9,5.6,15,0.00,CLR,,0.00,WeatherDisplay:10.37,2013-05-08 14:53:00,
2013-05-08 09:58:00,80.1,28.2,30.12,WNW,292,2.3,5.6,15,0.00,CLR,,0.00,WeatherDisplay:10.37,2013-05-08 14:58:00,
2013-05-08 10:03:00,79.3,27.6,30.09,WNW,292,2.9,5.6,15,0.00,BKN,,0.00,WeatherDisplay:10.37,2013-05-08 15:03:00,
2013-05-08 10:08:00,79.3,27.6,30.09,WNW,292,2.3,5.6,15,0.00,BKN,,0.00,WeatherDisplay:10.37,2013-05-08 15:08:00,
2013-05-08 10:13:00,80.1,28.2,30.09,WNW,292,2.3,5.6,15,0.00,BKN,,0.00,WeatherDisplay:10.37,2013-05-08 15:13:00,
2013-05-08 10:18:00,81.3,27.5,30.12,WNW,292,2.9,5.6,14,0.00,BKN,,0.00,WeatherDisplay:10.37,2013-05-08 15:18:00,
2013-05-08 10:23:00,82.2,28.3,30.12,WNW,292,2.3,5.6,14,0.00,BKN,,0.00,WeatherDisplay:10.37,2013-05-08 15:23:00,
2013-05-08 10:28:00,82.6,28.5,30.12,WNW,292,2.9,5.6,14,0.00,BKN,,0.00,WeatherDisplay:10.37,2013-05-08 15:28:00,
2013-05-08 10:33:00,82.9,28.8,30.09,WNW,292,2.3,5.6,14,0.00,BKN,,0.00,WeatherDisplay:10.37,2013-05-08 15:33:00,
2013-05-08 10:38:00,83.7,29.4,30.09,WNW,292,2.3,5.6,14,0.00,BKN,,0.00,WeatherDisplay:10.37,2013-05-08 15:38:00,
2013-05-08 10:43:00,84.0,29.7,30.09,WNW,292,2.9,5.6,14,0.00,SCT,,0.00,WeatherDisplay:10.37,2013-05-08 15:43:00,
2013-05-08 10:49:00,83.3,29.1,30.12,WNW,292,2.3,5.6,14,0.00,SCT,,0.00,WeatherDisplay:10.37,2013-05-08 15:49:00,
2013-05-08 10:54:00,84.0,29.7,30.12,WNW,292,2.9,5.6,14,0.00,SCT,,0.00,WeatherDisplay:10.37,2013-05-08 15:54:00,
2013-05-08 10:59:00,83.3,29.1,30.12,WNW,292,2.3,5.6,14,0.00,SCT,,0.00,WeatherDisplay:10.37,2013-05-08 15:59:00,
2013-05-08 11:04:00,82.2,28.3,30.15,WNW,292,2.3,5.6,14,0.00,SCT,,0.00,WeatherDisplay:10.37,2013-05-08 16:04:00,
2013-05-08 11:09:00,82.8,28.7,30.15,WNW,292,2.3,5.6,14,0.00,SCT,,0.00,WeatherDisplay:10.37,2013-05-08 16:09:00,
2013-05-08 11:14:00,82.9,28.8,30.15,WNW,292,2.3,5.6,14,0.00,SCT,,0.00,WeatherDisplay:10.37,2013-05-08 16:14:00,
2013-05-08 11:19:00,81.9,28.0,30.12,WNW,292,2.3,5.6,14,0.00,SCT,,0.00,WeatherDisplay:10.37,2013-05-08 16:19:00,
2013-05-08 11:24:00,81.5,27.7,30.12,WNW,292,2.3,5.6,14,0.00,SCT,,0.00,WeatherDisplay:10.37,2013-05-08 16:24:00,
2013-05-08 11:29:00,80.6,27.0,30.12,WNW,292,2.9,5.6,14,0.00,SCT,,0.00,WeatherDisplay:10.37,2013-05-08 16:29:00,
2013-05-08 11:34:00,79.7,27.9,30.12,WNW,292,2.3,5.6,15,0.00,SCT,,0.00,WeatherDisplay:10.37,2013-05-08 16:34:00,
2013-05-08 11:39:00,78.4,26.9,30.12,WNW,292,2.9,5.6,15,0.00,SCT,,0.00,WeatherDisplay:10.37,2013-05-08 16:39:00,
2013-05-08 11:44:00,78.1,26.6,30.12,WNW,292,2.3,5.6,15,0.00,SCT,,0.00,WeatherDisplay:10.37,2013-05-08 16:44:00,
2013-05-08 11:49:00,77.9,26.5,30.12,WNW,292,2.3,5.6,15,0.00,SCT,,0.00,WeatherDisplay:10.37,2013-05-08 16:49:00,
2013-05-08 11:54:00,77.9,26.5,30.12,WNW,292,2.3,5.6,15,0.00,SCT,,0.00,WeatherDisplay:10.37,2013-05-08 16:54:00,
2013-05-08 11:59:00,77.9,26.5,30.12,WNW,292,2.3,5.6,15,0.00,SCT,,0.00,WeatherDisplay:10.37,2013-05-08 16:59:00,
2013-05-08 12:04:00,77.7,26.4,30.09,WNW,292,2.3,5.6,15,0.00,SCT,,0.00,WeatherDisplay:10.37,2013-05-08 17:04:00,
2013-05-08 12:09:00,79.3,27.6,30.09,WNW,292,2.3,5.6,15,0.00,SCT,,0.00,WeatherDisplay:10.37,2013-05-08 17:09:00,
2013-05-08 12:14:00,81.3,27.5,30.09,WNW,292,2.3,5.6,14,0.00,SCT,,0.00,WeatherDisplay:10.37,2013-05-08 17:14:00,
2013-05-08 12:19:00,81.5,27.7,30.12,WNW,292,2.3,5.6,14,0.00,SCT,,0.00,WeatherDisplay:10.37,2013-05-08 17:19:00,
2013-05-08 12:24:00,81.7,27.8,30.12,WNW,292,2.9,5.6,14,0.00,SCT,,0.00,WeatherDisplay:10.37,2013-05-08 17:24:00,
2013-05-08 12:29:00,80.8,27.1,30.12,WNW,292,2.3,5.6,14,0.00,SCT,,0.00,WeatherDisplay:10.37,2013-05-08 17:29:00,
2013-05-08 12:34:00,79.7,27.9,30.09,WNW,292,2.3,5.6,15,0.00,SCT,,0.00,WeatherDisplay:10.37,2013-05-08 17:34:00,
2013-05-08 12:39:00,79.9,28.1,30.09,WNW,292,2.3,5.6,15,0.00,SCT,,0.00,WeatherDisplay:10.37,2013-05-08 17:39:00,
2013-05-08 12:44:00,79.3,27.6,30.09,WNW,292,2.3,5.6,15,0.00,SCT,,0.00,WeatherDisplay:10.37,2013-05-08 17:44:00,
2013-05-08 12:49:00,80.6,27.0,30.09,WNW,292,2.9,5.6,14,0.00,SCT,,0.00,WeatherDisplay:10.37,2013-05-08 17:49:00,
2013-05-08 12:54:00,81.7,27.8,30.09,WNW,292,2.3,5.6,14,0.00,SCT,,0.00,WeatherDisplay:10.37,2013-05-08 17:54:00,
2013-05-08 12:59:00,80.6,27.0,30.09,WNW,292,2.3,5.6,14,0.00,SCT,,0.00,WeatherDisplay:10.37,2013-05-08 17:59:00,
2013-05-08 13:04:00,79.9,28.1,30.09,WNW,292,2.3,5.6,15,0.00,CLR,,0.00,WeatherDisplay:10.37,2013-05-08 18:04:00,
2013-05-08 13:09:00,80.1,28.2,30.09,WNW,292,2.9,5.6,15,0.00,CLR,,0.00,WeatherDisplay:10.37,2013-05-08 18:09:00,
2013-05-08 13:14:00,81.9,28.0,30.09,WNW,292,2.9,5.6,14,0.00,CLR,,0.00,WeatherDisplay:10.37,2013-05-08 18:14:00,
2013-05-08 13:19:00,81.9,28.0,30.09,WNW,292,2.3,5.6,14,0.00,CLR,,0.00,WeatherDisplay:10.37,2013-05-08 18:19:00,
2013-05-08 13:24:00,82.9,28.8,30.09,WNW,292,2.3,5.6,14,0.00,CLR,,0.00,WeatherDisplay:10.37,2013-05-08 18:24:00,
2013-05-08 13:29:00,83.5,29.2,30.09,WNW,292,2.9,5.6,14,0.00,CLR,,0.00,WeatherDisplay:10.37,2013-05-08 18:29:00,
2013-05-08 13:34:00,83.8,29.5,30.09,WNW,292,2.3,5.6,14,0.00,CLR,,0.00,WeatherDisplay:10.37,2013-05-08 18:34:00,
2013-05-08 13:39:00,84.6,28.3,30.09,WNW,292,2.3,5.6,13,0.00,CLR,,0.00,WeatherDisplay:10.37,2013-05-08 18:39:00,
2013-05-08 13:44:00,83.7,29.4,30.09,WNW,292,2.3,5.6,14,0.00,CLR,,0.00,WeatherDisplay:10.37,2013-05-08 18:44:00,
2013-05-08 13:49:00,84.4,28.1,30.09,WNW,292,2.3,5.6,13,0.00,CLR,,0.00,WeatherDisplay:10.37,2013-05-08 18:49:00,
2013-05-08 13:54:00,83.3,29.1,30.09,WNW,292,2.9,5.6,14,0.00,CLR,,0.00,WeatherDisplay:10.37,2013-05-08 18:54:00,
2013-05-08 13:59:00,83.3,29.1,30.09,WNW,292,2.9,5.6,14,0.00,CLR,,0.00,WeatherDisplay:10.37,2013-05-08 18:59:00,
2013-05-08 14:04:00,84.4,28.1,30.09,WNW,292,2.3,5.6,13,0.00,FEW,,0.00,WeatherDisplay:10.37,2013-05-08 19:04:00,
2013-05-08 14:09:00,84.6,28.3,30.09,WNW,292,2.3,5.6,13,0.00,FEW,,0.00,WeatherDisplay:10.37,2013-05-08 19:09:00,
2013-05-08 14:14:00,84.7,28.4,30.09,WNW,292,2.3,5.6,13,0.00,FEW,,0.00,WeatherDisplay:10.37,2013-05-08 19:14:00,
2013-05-08 14:19:00,85.8,29.3,30.09,WNW,292,2.3,5.6,13,0.00,FEW,,0.00,WeatherDisplay:10.37,2013-05-08 19:19:00,
2013-05-08 14:24:00,85.8,29.3,30.09,WNW,292,2.9,5.6,13,0.00,FEW,,0.00,WeatherDisplay:10.37,2013-05-08 19:24:00,
2013-05-08 14:29:00,86.4,29.7,30.09,WNW,292,2.3,5.6,13,0.00,FEW,,0.00,WeatherDisplay:10.37,2013-05-08 19:29:00,
2013-05-08 14:34:00,84.0,29.7,30.09,WNW,292,2.3,5.6,14,0.00,FEW,,0.00,WeatherDisplay:10.37,2013-05-08 19:34:00,
2013-05-08 14:39:00,84.9,28.6,30.09,WNW,292,2.9,5.6,13,0.00,FEW,,0.00,WeatherDisplay:10.37,2013-05-08 19:39:00,
2013-05-08 14:44:00,84.4,28.1,30.09,WNW,292,2.3,5.6,13,0.00,FEW,,0.00,WeatherDisplay:10.37,2013-05-08 19:44:00,
2013-05-08 14:49:00,81.7,24.1,30.06,WNW,292,2.3,5.6,12,0.00,FEW,,0.00,WeatherDisplay:10.37,2013-05-08 19:49:00,
2013-05-08 14:54:00,82.6,22.7,30.06,WNW,292,2.9,5.6,11,0.00,FEW,,0.00,WeatherDisplay:10.37,2013-05-08 19:54:00,
2013-05-08 14:59:00,83.3,29.1,30.06,WNW,292,2.3,5.6,14,0.00,FEW,,0.00,WeatherDisplay:10.37,2013-05-08 19:59:00,
2013-05-08 15:04:00,84.2,28.0,30.06,WNW,292,2.3,5.6,13,0.00,CLR,,0.00,WeatherDisplay:10.37,2013-05-08 20:04:00,
2013-05-08 15:09:00,84.6,28.3,30.06,WNW,292,2.3,5.6,13,0.00,CLR,,0.00,WeatherDisplay:10.37,2013-05-08 20:09:00,
2013-05-08 15:14:00,85.3,28.8,30.06,WNW,292,2.3,5.6,13,0.00,CLR,,0.00,WeatherDisplay:10.37,2013-05-08 20:14:00,
2013-05-08 15:19:00,84.2,28.0,30.06,WNW,292,2.3,5.6,13,0.00,CLR,,0.00,WeatherDisplay:10.37,2013-05-08 20:19:00,
2013-05-08 15:24:00,84.2,28.0,30.06,WNW,292,2.3,5.6,13,0.00,CLR,,0.00,WeatherDisplay:10.37,2013-05-08 20:24:00,
2013-05-08 15:29:00,82.6,28.5,30.06,WNW,292,2.3,5.6,14,0.00,CLR,,0.00,WeatherDisplay:10.37,2013-05-08 20:29:00,
2013-05-08 15:34:00,81.7,24.1,30.06,WNW,292,2.9,5.6,12,0.00,CLR,,0.00,WeatherDisplay:10.37,2013-05-08 20:34:00,
2013-05-08 15:39:00,81.3,23.8,30.06,WNW,292,2.3,5.6,12,0.00,CLR,,0.00,WeatherDisplay:10.37,2013-05-08 20:39:00,
2013-05-08 15:44:00,83.3,29.1,30.03,WNW,292,2.9,5.6,14,0.00,CLR,,0.00,WeatherDisplay:10.37,2013-05-08 20:44:00,
2013-05-08 15:49:00,83.3,29.1,30.03,WNW,292,2.3,5.6,14,0.00,CLR,,0.00,WeatherDisplay:10.37,2013-05-08 20:49:00,
2013-05-08 15:54:00,84.4,28.1,30.03,WNW,292,2.9,5.6,13,0.00,CLR,,0.00,WeatherDisplay:10.37,2013-05-08 20:54:00,
2013-05-08 16:00:00,84.0,29.7,30.03,WNW,292,2.3,5.6,14,0.00,CLR,,0.00,WeatherDisplay:10.37,2013-05-08 21:00:00,
2013-05-08 16:05:00,82.8,28.7,30.03,WNW,292,2.3,5.6,14,0.00,CLR,,0.00,WeatherDisplay:10.37,2013-05-08 21:05:00,
2013-05-08 16:10:00,82.8,28.7,30.03,WNW,292,2.3,5.6,14,0.00,CLR,,0.00,WeatherDisplay:10.37,2013-05-08 21:10:00,
2013-05-08 16:15:00,83.8,29.5,30.03,WNW,292,2.3,5.6,14,0.00,CLR,,0.00,WeatherDisplay:10.37,2013-05-08 21:15:00,
2013-05-08 16:20:00,84.6,28.3,30.03,WNW,292,2.3,5.6,13,0.00,CLR,,0.00,WeatherDisplay:10.37,2013-05-08 21:20:00,
2013-05-08 16:25:00,84.4,28.1,30.03,WNW,292,2.3,5.6,13,0.00,CLR,,0.00,WeatherDisplay:10.37,2013-05-08 21:25:00,
2013-05-08 16:30:00,84.4,28.1,30.00,WNW,292,2.9,5.6,13,0.00,CLR,,0.00,WeatherDisplay:10.37,2013-05-08 21:30:00,
2013-05-08 16:35:00,84.7,28.4,30.00,WNW,292,2.3,5.6,13,0.00,CLR,,0.00,WeatherDisplay:10.37,2013-05-08 21:35:00,
2013-05-08 16:40:00,84.0,29.7,30.00,WNW,292,2.3,5.6,14,0.00,CLR,,0.00,WeatherDisplay:10.37,2013-05-08 21:40:00,
2013-05-08 16:45:00,83.8,29.5,30.03,WNW,292,2.3,5.6,14,0.00,CLR,,0.00,WeatherDisplay:10.37,2013-05-08 21:45:00,
2013-05-08 16:50:00,83.8,29.5,30.03,WNW,292,2.3,5.6,14,0.00,CLR,,0.00,WeatherDisplay:10.37,2013-05-08 21:50:00,
2013-05-08 16:55:00,84.2,28.0,30.03,WNW,292,2.3,5.6,13,0.00,CLR,,0.00,WeatherDisplay:10.37,2013-05-08 21:55:00,
2013-05-08 17:00:00,83.8,29.5,30.03,WNW,292,2.9,5.6,14,0.00,CLR,,0.00,WeatherDisplay:10.37,2013-05-08 22:00:00,
2013-05-08 17:05:00,83.8,29.5,30.03,WNW,292,2.3,5.6,14,0.00,CLR,,0.00,WeatherDisplay:10.37,2013-05-08 22:05:00,
2013-05-08 17:10:00,83.1,29.0,30.03,WNW,292,2.3,5.6,14,0.00,CLR,,0.00,WeatherDisplay:10.37,2013-05-08 22:10:00,
2013-05-08 17:15:00,83.1,29.0,30.03,WNW,292,2.9,5.6,14,0.00,CLR,,0.00,WeatherDisplay:10.37,2013-05-08 22:15:00,
2013-05-08 17:20:00,83.3,29.1,30.03,WNW,292,2.3,5.6,14,0.00,CLR,,0.00,WeatherDisplay:10.37,2013-05-08 22:20:00,
2013-05-08 17:25:00,82.9,28.8,30.03,WNW,292,2.3,5.6,14,0.00,CLR,,0.00,WeatherDisplay:10.37,2013-05-08 22:25:00,
2013-05-08 17:30:00,83.7,29.4,30.03,WNW,292,2.9,5.6,14,0.00,CLR,,0.00,WeatherDisplay:10.37,2013-05-08 22:30:00,
2013-05-08 17:35:00,83.8,29.5,30.03,WNW,292,2.3,5.6,14,0.00,CLR,,0.00,WeatherDisplay:10.37,2013-05-08 22:35:00,
2013-05-08 17:40:00,83.3,29.1,30.03,WNW,292,2.3,5.6,14,0.00,CLR,,0.00,WeatherDisplay:10.37,2013-05-08 22:40:00,
2013-05-08 17:45:00,82.4,28.4,30.03,WNW,292,2.3,5.6,14,0.00,CLR,,0.00,WeatherDisplay:10.37,2013-05-08 22:45:00,
2013-05-08 17:50:00,82.0,28.1,30.03,WNW,292,2.3,5.6,14,0.00,CLR,,0.00,WeatherDisplay:10.37,2013-05-08 22:50:00,
2013-05-08 17:55:00,81.5,27.7,30.03,WNW,292,2.3,5.6,14,0.00,CLR,,0.00,WeatherDisplay:10.37,2013-05-08 22:55:00,
2013-05-08 18:00:00,81.5,27.7,30.03,WNW,292,2.3,5.6,14,0.00,CLR,,0.00,WeatherDisplay:10.37,2013-05-08 23:00:00,
2013-05-08 18:05:00,81.1,27.4,30.03,WNW,292,2.9,5.6,14,0.00,CLR,,0.00,WeatherDisplay:10.37,2013-05-08 23:05:00,
2013-05-08 18:10:00,80.8,27.1,30.03,WNW,292,2.3,5.6,14,0.00,CLR,,0.00,WeatherDisplay:10.37,2013-05-08 23:10:00,
2013-05-08 18:15:00,80.4,28.5,30.03,WNW,292,2.9,5.6,15,0.00,CLR,,0.00,WeatherDisplay:10.37,2013-05-08 23:15:00,
2013-05-08 18:20:00,80.6,27.0,30.03,WNW,292,2.3,5.6,14,0.00,CLR,,0.00,WeatherDisplay:10.37,2013-05-08 23:20:00,
2013-05-08 18:25:00,80.2,28.4,30.03,WNW,292,2.3,5.6,15,0.00,CLR,,0.00,WeatherDisplay:10.37,2013-05-08 23:25:00,
2013-05-08 18:30:00,79.3,22.3,30.00,WNW,292,2.9,5.6,12,0.00,CLR,,0.00,WeatherDisplay:10.37,2013-05-08 23:30:00,
2013-05-08 18:35:00,79.0,22.0,30.00,WNW,292,2.3,5.6,12,0.00,CLR,,0.00,WeatherDisplay:10.37,2013-05-08 23:35:00,
2013-05-08 18:40:00,78.4,23.5,30.00,WNW,292,2.3,5.6,13,0.00,CLR,,0.00,WeatherDisplay:10.37,2013-05-08 23:40:00,
2013-05-08 18:45:00,78.6,23.6,30.00,WNW,292,2.9,5.6,13,0.00,CLR,,0.00,WeatherDisplay:10.37,2013-05-08 23:45:00,
2013-05-08 18:50:00,77.9,23.1,30.00,WNW,292,2.3,5.6,13,0.00,CLR,,0.00,WeatherDisplay:10.37,2013-05-08 23:50:00,
2013-05-08 18:55:00,78.1,23.2,30.00,WNW,292,2.3,5.6,13,0.00,CLR,,0.00,WeatherDisplay:10.37,2013-05-08 23:55:00,
2013-05-08 19:00:00,78.1,23.2,30.00,WNW,292,2.9,5.6,13,0.00,CLR,,0.00,WeatherDisplay:10.37,2013-05-09 00:00:00,
2013-05-08 19:05:00,77.7,22.9,30.00,WNW,292,2.9,5.6,13,0.00,CLR,,0.00,WeatherDisplay:10.37,2013-05-09 00:05:00,
2013-05-08 19:10:00,77.2,22.5,30.00,WNW,292,2.9,5.6,13,0.00,CLR,,0.00,WeatherDisplay:10.37,2013-05-09 00:10:00,
2013-05-08 19:15:00,76.5,21.9,30.00,WNW,292,2.3,5.6,13,0.00,CLR,,0.00,WeatherDisplay:10.37,2013-05-09 00:15:00,
2013-05-08 19:20:00,75.9,21.5,30.00,WNW,292,2.3,5.6,13,0.00,CLR,,0.00,WeatherDisplay:10.37,2013-05-09 00:20:00,
2013-05-08 19:25:00,75.6,21.2,30.00,WNW,292,2.3,5.6,13,0.00,CLR,,0.00,WeatherDisplay:10.37,2013-05-09 00:25:00,
2013-05-08 19:30:00,74.8,20.7,30.00,WNW,292,2.3,5.6,13,0.00,CLR,,0.00,WeatherDisplay:10.37,2013-05-09 00:30:00,
2013-05-08 19:35:00,73.9,19.9,30.00,WNW,292,2.9,5.6,13,0.00,CLR,,0.00,WeatherDisplay:10.37,2013-05-09 00:35:00,
2013-05-08 19:40:00,73.0,21.0,30.00,WNW,292,2.3,5.6,14,0.00,CLR,,0.00,WeatherDisplay:10.37,2013-05-09 00:40:00,
2013-05-08 19:45:00,72.3,20.4,30.03,WNW,292,2.9,5.6,14,0.00,CLR,,0.00,WeatherDisplay:10.37,2013-05-09 00:45:00,
2013-05-08 19:50:00,72.0,23.3,30.03,WNW,292,2.9,5.6,16,0.00,CLR,,0.00,WeatherDisplay:10.37,2013-05-09 00:50:00,
2013-05-08 19:55:00,71.4,24.3,30.03,WNW,292,2.3,5.6,17,0.00,CLR,,0.00,WeatherDisplay:10.37,2013-05-09 00:55:00,
2013-05-08 20:00:00,70.9,23.9,30.00,WNW,292,2.9,5.6,17,0.00,CLR,,0.00,WeatherDisplay:10.37,2013-05-09 01:00:00,
2013-05-08 20:05:00,70.5,23.6,30.00,WNW,292,2.3,5.6,17,0.00,CLR,,0.00,WeatherDisplay:10.37,2013-05-09 01:05:00,
2013-05-08 20:10:00,70.0,23.1,30.00,WNW,292,2.3,5.6,17,0.00,CLR,,0.00,WeatherDisplay:10.37,2013-05-09 01:10:00,
2013-05-08 20:15:00,70.0,25.8,30.00,WNW,292,2.3,5.6,19,0.00,CLR,,0.00,WeatherDisplay:10.37,2013-05-09 01:15:00,
2013-05-08 20:20:00,69.6,29.1,30.00,WNW,292,2.3,5.6,22,0.00,CLR,,0.00,WeatherDisplay:10.37,2013-05-09 01:20:00,
2013-05-08 20:25:00,69.4,28.9,30.00,WNW,292,2.3,5.6,22,0.00,CLR,,0.00,WeatherDisplay:10.37,2013-05-09 01:25:00,
2013-05-08 20:30:00,69.6,30.1,30.03,WNW,292,2.9,5.6,23,0.00,CLR,,0.00,WeatherDisplay:10.37,2013-05-09 01:30:00,
2013-05-08 20:35:00,69.8,30.3,30.03,WNW,292,2.3,5.6,23,0.00,CLR,,0.00,WeatherDisplay:10.37,2013-05-09 01:35:00,
2013-05-08 20:40:00,69.4,30.0,30.03,WNW,292,2.3,5.6,23,0.00,CLR,,0.00,WeatherDisplay:10.37,2013-05-09 01:40:00,
2013-05-08 20:45:00,69.1,29.7,30.03,WNW,292,2.3,5.6,23,0.00,CLR,,0.00,WeatherDisplay:10.37,2013-05-09 01:45:00,
2013-05-08 20:50:00,68.7,29.4,30.03,WNW,292,2.3,5.6,23,0.00,CLR,,0.00,WeatherDisplay:10.37,2013-05-09 01:50:00,
2013-05-08 20:56:00,69.1,30.7,30.03,WNW,292,2.9,5.6,24,0.00,CLR,,0.00,WeatherDisplay:10.37,2013-05-09 01:56:00,
2013-05-08 21:01:00,69.3,30.9,30.03,WNW,292,2.3,5.6,24,0.00,CLR,,0.00,WeatherDisplay:10.37,2013-05-09 02:01:00,
2013-05-08 21:06:00,69.1,30.7,30.03,WNW,292,2.3,5.6,24,0.00,CLR,,0.00,WeatherDisplay:10.37,2013-05-09 02:06:00,
2013-05-08 21:11:00,69.1,31.8,30.03,WNW,292,2.3,5.6,25,0.00,CLR,,0.00,WeatherDisplay:10.37,2013-05-09 02:11:00,
2013-05-08 21:16:00,68.5,30.3,30.03,WNW,292,2.3,5.6,24,0.00,CLR,,0.00,WeatherDisplay:10.37,2013-05-09 02:16:00,
2013-05-08 21:21:00,68.7,31.4,30.03,WNW,292,2.3,5.6,25,0.00,CLR,,0.00,WeatherDisplay:10.37,2013-05-09 02:21:00,
2013-05-08 21:26:00,68.7,32.4,30.03,WNW,292,2.3,5.6,26,0.00,CLR,,0.00,WeatherDisplay:10.37,2013-05-09 02:26:00,
2013-05-08 21:31:00,68.5,32.3,30.03,WNW,292,2.3,5.6,26,0.00,CLR,,0.00,WeatherDisplay:10.37,2013-05-09 02:31:00,
2013-05-08 21:36:00,68.5,32.3,30.03,WNW,292,2.3,5.6,26,0.00,CLR,,0.00,WeatherDisplay:10.37,2013-05-09 02:36:00,
2013-05-08 21:41:00,68.9,33.5,30.03,WNW,292,2.3,5.6,27,0.00,CLR,,0.00,WeatherDisplay:10.37,2013-05-09 02:41:00,
2013-05-08 21:46:00,69.1,33.7,30.03,WNW,292,2.3,5.6,27,0.00,CLR,,0.00,WeatherDisplay:10.37,2013-05-09 02:46:00,
2013-05-08 21:51:00,69.3,33.8,30.03,WNW,292,2.9,5.6,27,0.00,CLR,,0.00,WeatherDisplay:10.37,2013-05-09 02:51:00,
2013-05-08 21:56:00,69.1,32.7,30.03,WNW,292,2.3,5.6,26,0.00,CLR,,0.00,WeatherDisplay:10.37,2013-05-09 02:56:00,
2013-05-08 22:01:00,68.7,32.4,30.03,WNW,292,2.3,5.6,26,0.00,CLR,,0.00,WeatherDisplay:10.37,2013-05-09 03:01:00,
2013-05-08 22:06:00,68.4,32.1,30.03,WNW,292,2.9,5.6,26,0.00,CLR,,0.00,WeatherDisplay:10.37,2013-05-09 03:06:00,
2013-05-08 22:11:00,68.4,33.1,30.03,WNW,292,2.9,5.6,27,0.00,CLR,,0.00,WeatherDisplay:10.37,2013-05-09 03:11:00,
2013-05-08 22:16:00,68.4,34.0,30.03,WNW,292,2.3,5.6,28,0.00,CLR,,0.00,WeatherDisplay:10.37,2013-05-09 03:16:00,
2013-05-08 22:21:00,68.4,34.8,30.03,WNW,292,2.3,5.6,29,0.00,CLR,,0.00,WeatherDisplay:10.37,2013-05-09 03:21:00,
2013-05-08 22:26:00,68.4,35.7,30.03,WNW,292,2.3,5.6,30,0.00,CLR,,0.00,WeatherDisplay:10.37,2013-05-09 03:26:00,
2013-05-08 22:31:00,68.4,35.7,30.03,WNW,292,2.3,5.6,30,0.00,CLR,,0.00,WeatherDisplay:10.37,2013-05-09 03:31:00,
2013-05-08 22:36:00,68.4,36.5,30.03,WNW,292,2.9,5.6,31,0.00,CLR,,0.00,WeatherDisplay:10.37,2013-05-09 03:36:00,
2013-05-08 22:41:00,68.5,37.5,30.03,WNW,292,2.9,5.6,32,0.00,BKN,,0.00,WeatherDisplay:10.37,2013-05-09 03:41:00,
2013-05-08 22:46:00,68.5,37.5,30.03,WNW,292,2.3,5.6,32,0.00,BKN,,0.00,WeatherDisplay:10.37,2013-05-09 03:46:00,
2013-05-08 22:51:00,68.7,37.7,30.03,WNW,292,2.3,5.6,32,0.00,BKN,,0.00,WeatherDisplay:10.37,2013-05-09 03:51:00,
2013-05-08 22:56:00,68.7,37.7,30.03,WNW,292,2.9,5.6,32,0.00,SCT,,0.00,WeatherDisplay:10.37,2013-05-09 03:56:00,
2013-05-08 23:01:00,68.7,37.7,30.03,WNW,292,2.3,5.6,32,0.00,FEW,,0.00,WeatherDisplay:10.37,2013-05-09 04:01:00,
2013-05-08 23:06:00,68.7,37.7,30.03,WNW,292,2.3,5.6,32,0.00,FEW,,0.00,WeatherDisplay:10.37,2013-05-09 04:06:00,
2013-05-08 23:11:00,68.7,37.7,30.03,WNW,292,2.3,5.6,32,0.00,FEW,,0.00,WeatherDisplay:10.37,2013-05-09 04:11:00,
2013-05-08 23:16:00,68.5,37.5,30.03,WNW,292,2.3,5.6,32,0.00,FEW,,0.00,WeatherDisplay:10.37,2013-05-09 04:16:00,
2013-05-08 23:21:00,68.5,38.3,30.03,WNW,292,2.3,5.6,33,0.00,FEW,,0.00,WeatherDisplay:10.37,2013-05-09 04:21:00,
2013-05-08 23:26:00,68.5,38.3,30.03,WNW,292,2.3,5.6,33,0.00,FEW,,0.00,WeatherDisplay:10.37,2013-05-09 04:26:00,
2013-05-08 23:31:00,68.4,38.1,30.00,WNW,292,2.3,5.6,33,0.00,FEW,,0.00,WeatherDisplay:10.37,2013-05-09 04:31:00,
2013-05-08 23:36:00,68.4,38.1,30.00,WNW,292,2.3,5.6,33,0.00,FEW,,0.00,WeatherDisplay:10.37,2013-05-09 04:36:00,
2013-05-08 23:41:00,68.4,38.1,30.00,WNW,292,2.3,5.6,33,0.00,FEW,,0.00,WeatherDisplay:10.37,2013-05-09 04:41:00,
2013-05-08 23:46:00,68.4,38.1,30.00,WNW,292,2.3,5.6,33,0.00,FEW,,0.00,WeatherDisplay:10.37,2013-05-09 04:46:00,
2013-05-08 23:51:00,68.4,38.1,30.00,WNW,292,2.3,5.6,33,0.00,FEW,,0.00,WeatherDisplay:10.37,2013-05-09 04:51:00,
2013-05-08 23:56:00,68.2,38.0,30.00,WNW,292,2.3,5.6,33,0.00,FEW,,0.00,WeatherDisplay:10.37,2013-05-09 04:56:00,